Location: Street
(51.1247°N, 2.7429°W)
Time: 04:23:29
(UTC+00:00)

Transit 2A Rocket - Pass Details

Date: 30 November 2020
Orbit: 592 x 911 km, 66.7° (Epoch: 16 January)

Event Time Altitude Azimuth Distance (km) Brightness Sun altitude
Exits shadow 04:38:19 18° 5° (N) 1,835 7.0 -29.4°
Drops below altitude 10° 04:40:23 10° 25° (NNE) 2,310 7.7 -29.1°
Sets 04:43:10 0° 40° (NE) 3,176 8.7 -28.6°
